Location: Unspecified
(0.0000°N, 0.0000°E)
Time: 18:39:41
(UTC+00:00)

Hubble Space Telescope - Visible Passes

Search period start: 29 September 2016 00:00
Search period end: 09 October 2016 00:00
Orbit: 539 x 542 km, 28.5° (Epoch: 28 September)

Date Brightness Start Highest point End Pass type
(mag) Time Alt. Az. Time Alt. Az. Time Alt. Az.
29 Sep 2.9 19:45:47 10° W 19:48:17 22° NW 19:48:17 22° NW visible
30 Sep 3.5 04:20:23 10° N 04:21:41 11° NNE 04:23:00 10° NE visible
30 Sep 3.1 19:36:37 10° WNW 19:39:23 17° NNW 19:39:31 17° NNW visible
01 Oct 3.1 04:10:52 14° N 04:11:57 15° NNE 04:14:27 10° ENE visible
01 Oct 3.4 19:27:50 10° NW 19:29:39 13° NNW 19:30:42 12° NNW visible
02 Oct 2.8 04:02:06 21° NNE 04:02:12 21° NNE 04:05:23 10° E visible
03 Oct 2.6 03:53:20 27° NE 03:53:20 27° NE 03:56:04 10° E visible
04 Oct 2.9 03:44:32 25° E 03:44:32 25° E 03:46:34 10° ESE visible
04 Oct 2.0 05:20:13 10° W 05:23:50 28° SSW 05:27:27 10° SSE visible
05 Oct 3.4 03:35:41 19° ESE 03:35:41 19° ESE 03:36:56 10° ESE visible
05 Oct 2.4 05:11:06 11° WSW 05:14:04 21° SSW 05:17:13 10° SSE visible
06 Oct 3.8 03:26:47 12° ESE 03:26:47 12° ESE 03:27:11 10° ESE visible
06 Oct 2.8 05:02:11 11° WSW 05:04:18 15° SSW 05:06:45 10° S visible
07 Oct 3.1 04:53:23 10° SW 04:54:33 11° SSW 04:55:45 10° S visible
